Tracking 22458 objects as of 2-Mar-2021
HD Live streaming from Space Station
objects crossing your sky now

ARIANE 5 R/B

Track ARIANE 5 R/B now!


NORAD ID: 41593
Int'l Code: 2016-039C
Perigee: 283.5 km
Apogee: 35,138.5 km
Inclination: 6.2 °
Period: 619.9 minutes
Semi major axis: 24081 km
RCS: Unknown
Launch date: June 18, 2016
Source: France (FR)
Launch site: FRENCH GUIANA (FRGUI)

Note: This is a ROCKET BODY
aabbcc
Your satellite tracking list
Your tracking list is empty




NASA's NSSDC Master Catalog

Two Line Element Set (TLE):
1 41593U 16039C   21060.36982770  .00000127  00000-0  16838-3 0  9991
2 41593   6.1940  54.9296 7236749 165.1613 240.8709  2.32308423 39605
Source of the keplerian elements: AFSPC